Regional Weather Roundup
Issued by NWS

Home | Current Version | Previous Version | Graphics & Text | Print | Product List | Glossary Off
Versions: 1 2 3 4 5 6 7 8 9 10 11 12 13 14 15 16 17 18 19 20 21 22 23 24 25 26 27 28 29 30 31 32 33 34 35 36 37 38 39 40 41 42 43 44 45 46 47 48 49 50

000
ASUS43 KDTX 190410
RWRMI
MICHIGAN HOURLY REGIONAL WEATHER ROUNDUP
NATIONAL WEATHER SERVICE DETROIT/PONTIAC MI
1200 AM EDT SAT APR 19 2014

NOTE: "FAIR" INDICATES FEW OR NO CLOUDS BELOW 12,000 FEET WITH NO
SIGNIFICANT WEATHER AND/OR OBSTRUCTION TO VISIBILITY.

MIZ047>049-052>055-059>063-066>070-074>076-081>083-190500-
SOUTHEAST LOWER MICHIGAN

CITY           SKY/WX    TMP DP  RH WIND       PRES   REMARKS
ADRIAN         CLEAR     48  42  80 CALM      30.31S
ALMA           CLEAR     37  25  61 N7        30.39R WCI  31
ANN ARBOR      CLEAR     47  37  68 NE13      30.32R
BAD AXE        CLEAR     33  29  83 N6        30.39R WCI  28
CARO           CLEAR     36  32  85 CALM      30.38R
DETROIT CITY   MOCLDY    41  30  65 NE10      30.36R
DETROIT        PTCLDY    42  31  64 NE14      30.35R
FLINT          CLEAR     38  30  73 E13       30.38R WCI  30
GROSSE ILE     CLEAR     41  34  75 NE14      30.33R
HILLSDALE      CLEAR     43  31  63 N7        30.30S
HOWELL         PTCLDY    43  36  75 NE8       30.34R

CITY           SKY/WX    TMP DP  RH WIND       PRES   REMARKS
JACKSON        CLEAR     45  33  63 N14       30.32R
LAMBERTVILLE   CLEAR     46  43  87 CALM      30.31S
LANSING        CLEAR     41  29  62 N10       30.36R
LAPEER         FAIR      33  30  89 CALM      30.38R
MASON          CLEAR     42  32  67 N8        30.34R
MONROE         CLEAR     45  37  76 E8        30.31R
MT. CLEMENS    CLOUDY    37  30  77 N12       30.36R WCI  29
PONTIAC        MOCLDY    37  30  75 NE10      30.35R WCI  30
PORT HOPE        N/A     37  30  75 NW3       30.37R
PORT HURON     MOCLDY    36  30  80 N8        30.38S WCI  29
TRI CITIES     CLEAR     36  32  85 N7        30.40R WCI  30
TROY           PTCLDY    37  30  75 NE9       30.37R WCI  31
SAGINAW HB     CLEAR     36  32  87 NE6       30.39R WCI  31
YPSILANTI      CLEAR     45  33  63 NE14      30.34R
$$
MIZ043>046-050>051-056>058-064>065-071>073-077>080-190500-
SOUTHWEST LOWER MICHIGAN

CITY           SKY/WX    TMP DP  RH WIND       PRES   REMARKS
BATTLE CREEK   CLEAR     41  30  65 N6        30.33R
BENTON HARBOR  CLEAR     32  26  78 CALM      30.36R
BIG RAPIDS     CLEAR     33  25  72 N3        30.37S
COLDWATER      CLEAR     41  32  68 N3        30.32R
FREMONT        FAIR      36  23  59 NE10G16   30.38R WCI  29
HOLLAND        CLEAR     42  27  55 N7        30.36R
GRAND RAPIDS   CLEAR     42  27  55 NE16      30.36R
IONIA          FAIR      39  27  62 NE8       30.36R WCI  33
KALAMAZOO      CLEAR     38  27  64 N6        30.34R WCI  33
LUDINGTON      CLEAR     34  27  75 CALM      30.40S
MARSHALL       CLEAR     40  30  69 CALM      30.31S
MOUNT PLEASANT CLEAR     35  26  69 N8        30.39R WCI  29
MUSKEGON       CLEAR     39  24  55 NE10      30.38R WCI  32
SOUTH HAVEN    CLEAR     34  28  80 CALM      30.34S
$$
MIZ016>042-190500-
NORTHERN LOWER MICHIGAN

CITY           SKY/WX    TMP DP  RH WIND       PRES   REMARKS
ALPENA         CLEAR     33  28  81 N12       30.39F WCI  24
BEAVER ISLAND  CLEAR     29  27  91 CALM      30.44R
BELLAIRE       CLEAR     28  26  92 CALM      30.43R
CADILLAC       CLEAR     29  26  88 N3        30.36F
CHARLEVOIX     CLEAR     32  28  87 N5        30.45S WCI  27
FRANKFORT      CLEAR     29  24  84 CALM      30.41F
GAYLORD        CLEAR     30  26  85 VRB5      30.37F WCI  25
GRAYLING       CLEAR     28  25  88 CALM      30.39S
HARBOR SPRINGS CLEAR     32  28  84 CALM      30.41F
HOUGHTON LAKE  CLEAR     30  23  75 N5        30.38S WCI  25
MANISTEE       CLEAR     34  25  69 NE6       30.41F WCI  29
OSCODA         CLEAR     33  25  72 N5        30.38S WCI  29
PELLSTON       CLEAR     28  25  88 NW6       30.42F WCI  22
ROGERS CITY    CLEAR     32  30  92 NW7       30.41F WCI  26
TRAVERSE CITY  CLEAR     30  26  85 CALM      30.40F
$$
MIZ007>008-015-190500-
EASTERN UPPER MICHIGAN

CITY           SKY/WX    TMP DP  RH WIND       PRES   REMARKS
KINROSS        CLOUDY    30  30 100 NW5       30.40F WCI  25
MACKINAC ISLAN CLEAR     29  28  94 N6        30.40F WCI  23
NEWBERRY       CLEAR     28  26  91 W5        30.41R WCI  23
S. S. MARIE    CLOUDY    32  29  88 NW6       30.41S WCI  26
MUNISING         N/A     28  23  81 CALM      30.44S
$$
MIZ004>006-011>014-085-190500-
CENTRAL UPPER MICHIGAN

CITY           SKY/WX    TMP DP  RH WIND       PRES   REMARKS
MANISTIQUE     CLEAR     28  26  89 N6        30.43R WCI  22
ESCANABA       CLEAR     30  25  80 NE5       30.43S WCI  25
MENOMINEE      CLEAR     28  25  86 NE5       30.42S WCI  23
SAWYER-GWINN   CLEAR     25  24  96 CALM      30.41S
$$
MIZ001>003-009>011-084-190500-
WESTERN UPPER MICHIGAN

CITY           SKY/WX    TMP DP  RH WIND       PRES   REMARKS
IRON MOUNTAIN  CLEAR     28  22  78 SE5       30.39S WCI  23
HOUGHTON       CLEAR     28  24  85 SE5       30.41R WCI  23
COPPER HARBOR    N/A     27  23  85 CALM      30.43R
IRONWOOD       MOCLDY    34  21  60 E7        30.30F WCI  28
$$

ABBREVIATIONS USED IN REMARKS
   TC - TEMPERATURE IN CELSIUS
  WCI - WIND CHILL INDEX
   HX - HEAT INDEX
  VSB - VISIBILITY




USA.gov is the U.S. government's official web portal to all federal, state and local government web resources and services.